Burlington, CO

12:36 AM MDT on April 30, 2017 (GMT -0600)
Kit Carson County

Weather History for KITR - April, 2014

Change the Weather History Date:

Sunday, April 6, 2014

  Actual Average Record
Temperature  
Mean Temperature 48 °F 45 °F  
Max Temperature 62 °F 60 °F 87 °F (1991)
Min Temperature 34 °F 31 °F 8 °F (1936)
Degree Days  
Heating Degree Days 18    
Moisture  
Dew Point 32 °F    
Average Humidity 70    
Maximum Humidity 97    
Minimum Humidity 29    
Precipitation  
Precipitation 0.00 in 0.02 in 0.37 in (1934)
Month to date precipitation 0.11 0.15  
Year to date precipitation 1.02 1.84  
Sea Level Pressure  
Sea Level Pressure 29.83 in    
Wind  
Wind Speed 12 mph (West)    
Max Wind Speed 22 mph    
Max Gust Speed 29 mph    
Visibility 8 miles    
Events      
T = Trace of Precipitation, MM = Missing Value Source: NWS Daily Summary

Daily Weather History Graph

Daily Weather History Graph

Search for Another Location

Airport or City:

Trip Planner

Search our weather history database for the weather conditions in past years. The results will help you decide how hot, cold, wet, or windy it might be!

Date:

Astronomy

Apr. 06, 2014 Rise Set
Actual Time 6:25 AM MDT 7:17 PM MDT
Civil Twilight 5:58 AM MDT 7:45 PM MDT
Nautical Twilight 5:26 AM MDT 8:17 PM MDT
Astronomical Twilight 4:52 AM MDT 8:51 PM MDT
Moon 11:29 AM MDT (4/6) 1:14 AM MDT (4/6)
Length of Visible Light 13h 46m
Length of Day
12h 52m
Waxing Crescent, 44% of the Moon is Illuminated
Apr 6
Waxing Crescent
Apr 7
First Quarter
Apr 15
Full
Apr 22
Last Quarter
Apr 29
New

Hourly Weather History & Observations

Time (MDT) Temp. Windchill Dew Point Humidity Pressure Visibility Wind Dir Wind Speed Gust Speed Precip Events Conditions
12:53 AM 39.9 °F 32.1 °F 35.1 °F 83% 29.86 in 10.0 mi SSW 13.8 mph - N/A   Clear
1:53 AM 39.0 °F 31.0 °F 34.0 °F 82% 29.84 in 10.0 mi SSW 13.8 mph - N/A   Clear
2:53 AM 37.9 °F 30.5 °F 33.1 °F 83% 29.83 in 10.0 mi SW 11.5 mph - N/A   Clear
3:53 AM 35.1 °F 27.4 °F 30.9 °F 85% 29.83 in 10.0 mi SW 10.4 mph - N/A   Clear
4:53 AM 34.0 °F 25.5 °F 32.0 °F 92% 29.83 in 10.0 mi SW 11.5 mph - N/A   Clear
5:26 AM 34.0 °F 25.5 °F 32.0 °F 92% 29.87 in 7.0 mi SW 11.5 mph - N/A   Scattered Clouds
5:34 AM 35.1 °F 26.4 °F 33.1 °F 92% 29.86 in 2.5 mi SW 12.7 mph - N/A   Mostly Cloudy
5:43 AM 36.0 °F 27.5 °F 34.0 °F 93% 29.86 in 1.5 mi SW 12.7 mph - N/A   Mostly Cloudy
5:53 AM 36.0 °F 26.7 °F 34.0 °F 93% 29.83 in 2.5 mi SW 15.0 mph - N/A   Overcast
6:09 AM 36.0 °F 27.1 °F 35.1 °F 97% 29.87 in 4.0 mi SW 13.8 mph - N/A   Overcast
6:42 AM 36.0 °F 28.0 °F 35.1 °F 97% 29.87 in 2.0 mi WSW 11.5 mph - N/A   Overcast
6:53 AM 36.0 °F 28.0 °F 34.0 °F 93% 29.85 in 3.0 mi WSW 11.5 mph - N/A   Mostly Cloudy
7:01 AM 35.1 °F 26.4 °F 34.0 °F 96% 29.87 in 1.8 mi SW 12.7 mph - N/A   Mostly Cloudy
7:11 AM 36.0 °F 27.5 °F 34.0 °F 93% 29.87 in 0.8 mi WSW 12.7 mph - N/A   Mist
7:22 AM 36.0 °F 27.1 °F 35.1 °F 97% 29.87 in 1.8 mi WSW 13.8 mph - N/A   Mostly Cloudy
7:26 AM 36.0 °F 27.5 °F 35.1 °F 97% 29.87 in 3.0 mi WSW 12.7 mph - N/A   Mostly Cloudy
7:46 AM 37.9 °F 30.5 °F 36.0 °F 93% 29.87 in 6.0 mi WSW 11.5 mph - N/A   Partly Cloudy
7:53 AM 37.9 °F 29.6 °F 36.0 °F 93% 29.86 in 8.0 mi West 13.8 mph - N/A   Partly Cloudy
8:53 AM 45.0 °F 39.3 °F 33.1 °F 63% 29.83 in 10.0 mi WNW 11.5 mph - N/A   Clear
9:53 AM 50.0 °F - 30.9 °F 48% 29.82 in 10.0 mi NNW 11.5 mph - N/A   Clear
10:53 AM 55.9 °F - 32.0 °F 40% 29.80 in 10.0 mi North 11.5 mph - N/A   Clear
11:53 AM 59.0 °F - 28.0 °F 31% 29.78 in 10.0 mi North 13.8 mph - N/A   Clear
12:53 PM 57.0 °F - 27.0 °F 32% 29.78 in 10.0 mi NE 9.2 mph 23.0 mph N/A   Mostly Cloudy
1:53 PM 59.0 °F - 28.9 °F 32% 29.76 in 10.0 mi NNW 17.3 mph - N/A   Mostly Cloudy
2:53 PM 57.9 °F - 27.0 °F 31% 29.75 in 10.0 mi North 15.0 mph - N/A   Mostly Cloudy
3:53 PM 57.0 °F - 28.9 °F 34% 29.76 in 10.0 mi NW 21.9 mph 28.8 mph N/A   Mostly Cloudy
4:53 PM 57.0 °F - 25.0 °F 29% 29.76 in 10.0 mi NNW 5.8 mph - N/A   Overcast
5:53 PM 55.0 °F - 28.9 °F 37% 29.77 in 10.0 mi NNW 13.8 mph - N/A   Partly Cloudy
6:53 PM 52.0 °F - 28.9 °F 41% 29.79 in 10.0 mi North 11.5 mph - N/A   Clear
7:53 PM 42.1 °F 37.7 °F 28.9 °F 60% 29.83 in 10.0 mi NW 6.9 mph - N/A   Clear
8:53 PM 39.0 °F 34.0 °F 28.9 °F 67% 29.85 in 10.0 mi West 6.9 mph - N/A   Clear
9:53 PM 44.1 °F 38.6 °F 30.0 °F 58% 29.85 in 10.0 mi NNW 10.4 mph - N/A   Partly Cloudy
10:53 PM 43.0 °F 36.8 °F 30.9 °F 62% 29.85 in 10.0 mi NNW 11.5 mph - N/A   Clear
11:53 PM 39.0 °F 32.8 °F 30.9 °F 73% 29.85 in 10.0 mi NW 9.2 mph - N/A   Clear